K9UO Weather Reports


Display with metric or nautical units.
time (UTC)temp
F
wind
direction
speed
MPH
gust
MPH
rain 1hr
in
rain 24hr
in
rain mn
in
humidity
%
barometer
mb
20260902203027 93 180 3.0 9.0 0.00 0.00 0.00 59 1015.8
20260902202513 93 200 4.0 12.0 0.00 0.00 0.00 58 1015.9
20260902202015 93 187 4.0 12.0 0.00 0.00 0.00 58 1016.0
20260902201533 93 196 4.0 11.0 0.00 0.00 0.00 59 1016.1
20260902201016 93 185 4.0 9.0 0.00 0.00 0.00 59 1016.1
20260902200519 93 201 5.0 9.0 0.00 0.00 0.00 57 1016.2
20260902200031 93 171 3.0 8.0 0.00 0.00 0.00 57 1016.3
20260902195519 93 222 5.0 9.0 0.00 0.00 0.00 58 1016.3
20260902195007 93 214 4.0 9.0 0.00 0.00 0.00 58 1016.3
20260902194518 93 211 3.0 9.0 0.00 0.00 0.00 56 1016.3
20260902194014 93 176 3.0 9.0 0.00 0.00 0.00 57 1016.3
20260902193512 93 206 5.0 9.0 0.00 0.00 0.00 58 1016.4
20260902193026 93 217 3.0 9.0 0.00 0.00 0.00 60 1016.4
20260902192513 93 240 4.0 11.0 0.00 0.00 0.00 57 1016.5
20260902192015 93 216 3.0 11.0 0.00 0.00 0.00 58 1016.5
20260902191532 93 167 3.0 7.0 0.00 0.00 0.00 59 1016.5
20260902191014 92 240 4.0 11.0 0.00 0.00 0.00 57 1016.6
20260902190517 92 246 5.0 11.0 0.00 0.00 0.00 58 1016.8
20260902190035 92 175 4.0 11.0 0.00 0.00 0.00 60 1016.8
20260902185519 92 174 2.0 9.0 0.00 0.00 0.00 59 1016.9
20260902185016 92 206 3.0 8.0 0.00 0.00 0.00 58 1016.8
20260902184536 92 209 2.0 9.0 0.00 0.00 0.00 59 1016.9
20260902184007 92 168 3.0 12.0 0.00 0.00 0.00 57 1016.8
20260902183508 92 202 4.0 12.0 0.00 0.00 0.00 58 1016.8
20260902183031 92 182 4.0 7.0 0.00 0.00 0.00 58 1017.0
20260902182511 92 234 4.0 9.0 0.00 0.00 0.00 58 1017.1
20260902182012 92 203 4.0 9.0 0.00 0.00 0.00 61 1017.2
20260902181528 92 203 3.0 10.0 0.00 0.00 0.00 59 1017.2
20260902181016 92 233 2.0 10.0 0.00 0.00 0.00 60 1017.1
20260902180514 92 205 3.0 8.0 0.00 0.00 0.00 60 1017.1
20260902180030 92 236 3.0 8.0 0.00 0.00 0.00 58 1017.2
20260902175517 91 211 3.0 9.0 0.00 0.00 0.00 60 1017.2
20260902175016 91 196 3.0 9.0 0.00 0.00 0.00 59 1017.3
20260902174534 91 194 4.0 8.0 0.00 0.00 0.00 60 1017.3
20260902174008 91 245 2.0 7.0 0.00 0.00 0.00 57 1017.4
20260902173508 91 187 3.0 9.0 0.00 0.00 0.00 58 1017.5
20260902173019 91 213 4.0 9.0 0.00 0.00 0.00 58 1017.6
20260902172511 91 217 4.0 7.0 0.00 0.00 0.00 59 1017.6
20260902172010 91 176 2.0 7.0 0.00 0.00 0.00 60 1017.6
20260902171502 91 195 2.0 7.0 0.00 0.00 0.00 61 1017.7
20260902171004 91 228 4.0 7.0 0.00 0.00 0.00 59 1017.8
20260902170503 91 257 3.0 7.0 0.00 0.00 0.00 61 1017.8
20260902170010 91 186 2.0 6.0 0.00 0.00 0.00 58 1017.8
20260902165504 90 209 2.0 6.0 0.00 0.00 0.00 62 1017.8
20260902165007 90 242 3.0 5.0 0.00 0.00 0.00 58 1017.8
20260902164517 90 263 2.0 7.0 0.00 0.00 0.00 62 1017.8
20260902164005 90 242 3.0 9.0 0.00 0.00 0.00 62 1017.9
20260902163508 90 242 3.0 9.0 0.00 0.00 0.00 63 1017.9
20260902163018 90 225 2.0 6.0 0.00 0.00 0.00 63 1017.9
20260902162508 89 279 2.0 6.0 0.00 0.00 0.00 60 1018.0
20260902162012 89 198 2.0 6.0 0.00 0.00 0.00 63 1018.0
20260902161524 89 198 3.0 7.0 0.00 0.00 0.00 62 1018.0
20260902161015 89 269 2.0 7.0 0.00 0.00 0.00 66 1018.0
20260902160503 88 205 2.0 8.0 0.00 0.00 0.00 62 1018.0
20260902160005 88 167 3.0 9.0 0.00 0.00 0.00 64 1018.0
20260902155503 88 173 3.0 9.0 0.00 0.00 0.00 65 1018.1
20260902155003 88 204 3.0 8.0 0.00 0.00 0.00 65 1018.0
20260902154507 88 211 3.0 9.0 0.00 0.00 0.00 64 1018.0
20260902154007 88 215 3.0 9.0 0.00 0.00 0.00 67 1018.1
20260902153507 87 252 4.0 8.0 0.00 0.00 0.00 66 1018.0
20260902153018 87 294 3.0 7.0 0.00 0.00 0.00 67 1018.0
20260902152507 87 284 4.0 7.0 0.00 0.00 0.00 66 1018.0
20260902152008 86 206 2.0 6.0 0.00 0.00 0.00 69 1017.9
20260902151523 86 229 2.0 6.0 0.00 0.00 0.00 68 1017.9
20260902151011 86 267 2.0 8.0 0.00 0.00 0.00 68 1017.9
20260902150513 86 231 3.0 8.0 0.00 0.00 0.00 70 1017.9
20260902150027 86 195 2.0 7.0 0.00 0.00 0.00 70 1017.9
20260902145503 85 217 2.0 7.0 0.00 0.00 0.00 68 1018.0
20260902145003 85 196 3.0 6.0 0.00 0.00 0.00 70 1018.0
20260902144507 85 344 2.0 7.0 0.00 0.00 0.00 69 1017.9
20260902144005 85 239 3.0 7.0 0.00 0.00 0.00 69 1018.0
20260902143504 85 243 2.0 7.0 0.00 0.00 0.00 71 1017.9
20260902143012 84 217 2.0 7.0 0.00 0.00 0.00 70 1018.0
20260902142508 84 192 3.0 7.0 0.00 0.00 0.00 70 1018.0
20260902142011 84 238 3.0 7.0 0.00 0.00 0.00 70 1018.1
20260902141524 84 213 2.0 8.0 0.00 0.00 0.00 71 1018.0
20260902141012 84 240 4.0 8.0 0.00 0.00 0.00 70 1018.1
20260902140511 84 250 3.0 7.0 0.00 0.00 0.00 70 1018.2
20260902140034 84 184 2.0 6.0 0.00 0.00 0.00 71 1018.2
20260902135512 83 231 3.0 5.0 0.00 0.00 0.00 70 1018.2
20260902135015 83 221 2.0 6.0 0.00 0.00 0.00 71 1018.2
20260902134507 83 255 2.0 6.0 0.00 0.00 0.00 71 1018.3
20260902134003 83 182 3.0 6.0 0.00 0.00 0.00 71 1018.2
20260902133503 82 248 2.0 5.0 0.00 0.00 0.00 71 1018.1
20260902133012 82 215 2.0 7.0 0.00 0.00 0.00 72 1018.2
20260902132509 82 223 3.0 6.0 0.00 0.00 0.00 73 1018.2
20260902132006 82 248 3.0 7.0 0.00 0.00 0.00 73 1018.1
20260902131517 81 208 3.0 8.0 0.00 0.00 0.00 73 1018.2
20260902131007 81 261 3.0 8.0 0.00 0.00 0.00 73 1018.1
20260902130512 80 273 1.0 5.0 0.00 0.00 0.00 77 1018.1
20260902130025 79 352 2.0 4.0 0.00 0.00 0.00 76 1018.1
20260902125513 79 295 2.0 5.0 0.00 0.00 0.00 78 1018.2
20260902125013 78 232 1.0 5.0 0.00 0.00 0.00 78 1018.1
20260902124533 78 231 1.0 4.0 0.00 0.00 0.00 78 1018.2
20260902124016 77 219 2.0 4.0 0.00 0.00 0.00 81 1018.2
20260902123504 77 261 2.0 4.0 0.00 0.00 0.00 81 1018.2
20260902123008 76 227 1.0 4.0 0.00 0.00 0.00 82 1018.2
20260902122505 76 195 2.0 4.0 0.00 0.00 0.00 82 1018.3
20260902122007 75 198 1.0 4.0 0.00 0.00 0.00 83 1018.3
20260902121512 75 232 1.0 4.0 0.00 0.00 0.00 84 1018.3
20260902121007 75 221 1.0 3.0 0.00 0.00 0.00 84 1018.3
20260902120508 75 220 1.0 2.0 0.00 0.00 0.00 84 1018.3
20260902120022 74 251 1.0 2.0 0.00 0.00 0.00 84 1018.3
20260902115511 74 205 0.0 2.0 0.00 0.00 0.00 84 1018.2
20260902115013 74 200 1.0 3.0 0.00 0.00 0.00 84 1018.1
20260902114529 74 206 1.0 3.0 0.00 0.00 0.00 84 1018.0
20260902114016 74 209 1.0 2.0 0.00 0.00 0.00 84 1017.9
20260902113513 74 206 1.0 2.0 0.00 0.00 0.00 84 1017.9
20260902113034 74 206 1.0 3.0 0.00 0.00 0.00 84 1017.8
20260902112503 74 199 0.0 3.0 0.00 0.00 0.00 84 1017.8
20260902112006 74 210 0.0 2.0 0.00 0.00 0.00 84 1017.8
20260902111511 74 210 1.0 2.0 0.00 0.00 0.00 84 1017.8
20260902111008 74 210 1.0 2.0 0.00 0.00 0.00 84 1017.7
20260902110507 74 210 0.0 2.0 0.00 0.00 0.00 84 1017.6
20260902110019 74 208 1.0 2.0 0.00 0.00 0.00 84 1017.6
20260902105510 74 197 0.0 2.0 0.00 0.00 0.00 84 1017.6
20260902105013 74 197 1.0 2.0 0.00 0.00 0.00 84 1017.5
20260902104523 74 197 0.0 2.0 0.00 0.00 0.00 84 1017.4
20260902104012 74 197 1.0 2.0 0.00 0.00 0.00 83 1017.3
20260902103512 74 192 1.0 3.0 0.00 0.00 0.00 83 1017.3
20260902103037 75 210 2.0 3.0 0.00 0.00 0.00 83 1017.3
20260902102516 75 198 2.0 3.0 0.00 0.00 0.00 83 1017.3
20260902102017 75 202 2.0 3.0 0.00 0.00 0.00 83 1017.3
20260902101520 75 201 1.0 2.0 0.00 0.00 0.00 83 1017.3
20260902101007 75 217 1.0 3.0 0.00 0.00 0.00 83 1017.2
20260902100507 75 210 2.0 3.0 0.00 0.00 0.00 82 1017.2
20260902100016 75 188 2.0 3.0 0.00 0.00 0.00 82 1017.2
20260902095510 75 209 1.0 3.0 0.00 0.00 0.00 82 1017.1
20260902095012 75 216 2.0 3.0 0.00 0.00 0.00 82 1017.1
20260902094524 75 213 2.0 4.0 0.00 0.00 0.00 82 1017.1
20260902094012 75 198 2.0 5.0 0.00 0.00 0.00 82 1017.1
20260902093513 75 217 2.0 5.0 0.00 0.00 0.00 82 1017.2
20260902093036 75 200 1.0 3.0 0.00 0.00 0.00 82 1017.2
20260902092512 75 202 2.0 3.0 0.00 0.00 0.00 82 1017.2
20260902092013 75 196 1.0 3.0 0.00 0.00 0.00 82 1017.2
20260902091537 75 214 2.0 3.0 0.00 0.00 0.00 82 1017.1
20260902091016 75 205 1.0 3.0 0.00 0.00 0.00 82 1017.1
20260902090504 75 202 2.0 3.0 0.00 0.00 0.00 83 1017.1
20260902090014 75 199 2.0 3.0 0.00 0.00 0.00 83 1017.1
20260902085511 75 196 1.0 3.0 0.00 0.00 0.00 83 1017.1
20260902085007 75 201 2.0 3.0 0.00 0.00 0.00 83 1017.1
20260902084530 75 219 2.0 3.0 0.00 0.00 0.00 83 1017.0
20260902084009 75 220 1.0 3.0 0.00 0.00 0.00 83 1017.0
20260902083517 75 209 1.0 2.0 0.00 0.00 0.00 83 1017.1
20260902083038 75 206 1.0 2.0 0.00 0.00 0.00 83 1017.0
20260902082515 76 213 1.0 2.0 0.00 0.00 0.00 83 1016.9
20260902082015 76 221 1.0 3.0 0.00 0.00 0.00 83 1016.9
20260902081531 76 213 1.0 3.0 0.00 0.00 0.00 83 1016.9
20260902081014 76 212 1.0 3.0 0.00 0.00 0.00 83 1016.9
20260902080515 76 212 1.0 2.0 0.00 0.00 0.00 83 1016.9
20260902080032 76 206 1.0 2.0 0.00 0.00 0.00 83 1016.8
20260902075505 76 211 1.0 2.0 0.00 0.00 0.00 83 1016.8
20260902075007 76 210 1.0 2.0 0.00 0.00 0.00 83 1016.8
20260902074516 76 215 1.0 2.0 0.00 0.00 0.00 83 1016.8
20260902074011 76 215 1.0 2.0 0.00 0.00 0.00 83 1016.7
20260902073511 76 215 1.0 2.0 0.00 0.00 0.00 83 1016.8
20260902073026 76 208 1.0 3.0 0.00 0.00 0.00 83 1016.8
20260902072512 76 227 2.0 3.0 0.00 0.00 0.00 83 1016.9
20260902072014 76 217 1.0 3.0 0.00 0.00 0.00 83 1016.9
20260902071535 76 208 2.0 4.0 0.00 0.00 0.00 1016.9
20260902071020 77 229 2.0 4.0 0.00 0.00 0.00 83 1016.9
20260902070513 77 198 1.0 3.0 0.00 0.00 0.00 83 1016.8
20260902070034 77 221 2.0 3.0 0.00 0.00 0.00 83 1016.8
20260902065515 77 213 1.0 4.0 0.00 0.00 0.00 83 1016.8
20260902065019 77 216 1.0 4.0 0.00 0.00 0.00 83 1016.8
20260902064516 77 221 1.0 3.0 0.00 0.00 0.00 83 1016.9
20260902064008 77 216 1.0 5.0 0.00 0.00 0.00 82 1017.0
20260902063509 77 212 1.0 5.0 0.00 0.00 0.00 82 1016.9
20260902063027 77 216 2.0 3.0 0.00 0.00 0.00 82 1017.0
20260902062512 77 205 1.0 2.0 0.00 0.00 0.00 82 1017.1
20260902062017 77 205 1.0 2.0 0.00 0.00 0.00 82 1017.1
20260902061541 78 205 0.0 2.0 0.00 0.00 0.00 82 1017.1
20260902061018 78 219 1.0 2.0 0.00 0.00 0.00 82 1017.2
20260902060515 78 212 1.0 2.0 0.00 0.00 0.00 81 1017.1
20260902060033 78 222 1.0 4.0 0.00 0.00 0.00 81 1017.1
20260902055520 78 206 1.0 4.0 0.00 0.00 0.00 81 1017.1
20260902055019 78 226 1.0 3.0 0.00 0.00 0.00 81 1017.1
20260902054537 78 198 2.0 3.0 0.00 0.00 0.00 81 1017.1
20260902054007 78 196 1.0 4.0 0.00 0.00 0.00 81 1017.2
20260902053508 78 200 2.0 5.0 0.00 0.00 0.00 82 1017.1
20260902053020 78 215 3.0 5.0 0.00 0.00 0.00 82 1017.1
20260902052514 78 210 3.0 4.0 0.00 0.00 0.00 83 1017.0
20260902052011 78 219 2.0 4.0 0.00 0.00 0.00 83 1017.0
20260902051504 78 189 2.0 3.0 0.00 0.00 0.00 83 1017.0
20260902051005 78 201 2.0 3.0 0.00 0.00 0.00 83 1017.0
20260902050504 78 190 1.0 2.0 0.00 0.00 0.00 83 1016.9
20260902050004 78 196 0.0 2.0 0.00 0.00 0.00 84 1017.0
20260902045503 78 196 1.0 2.0 0.00 0.00 0.00 84 1017.0
20260902045007 78 196 1.0 3.0 0.00 0.00 0.00 83 1017.0
20260902044512 78 205 1.0 3.0 0.00 0.00 0.00 84 1017.0
20260902044007 78 202 1.0 3.0 0.00 0.00 0.00 83 1017.0
20260902043509 78 208 1.0 3.0 0.00 0.00 0.00 83 1017.0
20260902043017 78 212 0.0 3.0 0.00 0.00 0.00 83 1017.0
20260902042511 78 209 1.0 4.0 0.00 0.00 0.00 83 1017.0
20260902042009 78 214 1.0 4.0 0.00 0.00 0.00 83 1017.0
20260902041523 78 203 1.0 3.0 0.00 0.00 0.00 83 1016.9
20260902041013 78 201 1.0 3.0 0.00 0.00 0.00 83 1016.9
20260902040503 78 200 1.0 3.0 0.00 0.00 0.00 83 1016.9
20260902040006 78 200 2.0 3.0 0.00 0.00 0.00 83 1016.9
20260902035503 78 223 1.0 3.0 0.00 0.00 0.00 83 1017.0
20260902035005 78 190 1.0 2.0 0.00 0.00 0.00 82 1016.9
20260902034511 79 207 1.0 3.0 0.00 0.00 0.00 82 1017.0
20260902034006 79 198 1.0 3.0 0.00 0.00 0.00 82 1017.0
20260902033506 79 225 0.0 2.0 0.00 0.00 0.00 81 1017.0
20260902033015 79 225 1.0 2.0 0.00 0.00 0.00 80 1017.0
20260902032509 80 225 1.0 2.0 0.00 0.00 0.00 80 1017.0
20260902032013 80 225 1.0 3.0 0.00 0.00 0.00 80 1017.1
20260902031523 80 223 1.0 3.0 0.00 0.00 0.00 80 1017.0
20260902031013 80 205 2.0 3.0 0.00 0.00 0.00 80 1017.0
20260902030513 80 204 1.0 4.0 0.00 0.00 0.00 80 1017.1
20260902030027 80 217 2.0 4.0 0.00 0.00 0.00 80 1017.1
20260902025503 80 209 1.0 3.0 0.00 0.00 0.00 79 1017.2
20260902025004 80 196 2.0 3.0 0.00 0.00 0.00 79 1017.2
20260902024516 80 202 2.0 4.0 0.00 0.00 0.00 79 1017.2
20260902024006 80 218 2.0 4.0 0.00 0.00 0.00 80 1017.1
20260902023503 80 210 1.0 3.0 0.00 0.00 0.00 80 1017.1
20260902023013 80 190 1.0 2.0 0.00 0.00 0.00 80 1017.1
20260902022507 80 202 1.0 2.0 0.00 0.00 0.00 80 1017.1
20260902022008 80 194 1.0 3.0 0.00 0.00 0.00 79 1017.0
20260902021516 80 200 1.0 3.0 0.00 0.00 0.00 79 1017.0
20260902021008 80 197 2.0 3.0 0.00 0.00 0.00 79 1017.0
20260902020512 81 211 0.0 2.0 0.00 0.00 0.00 78 1016.9
20260902020025 81 211 0.0 2.0 0.00 0.00 0.00 78 1016.9
20260902015514 81 208 1.0 2.0 0.00 0.00 0.00 78 1016.9
20260902015016 81 209 1.0 2.0 0.00 0.00 0.00 77 1016.9
20260902014504 81 209 1.0 2.0 0.00 0.00 0.00 77 1016.8
20260902014004 81 209 1.0 2.0 0.00 0.00 0.00 77 1016.8
20260902013504 81 215 0.0 2.0 0.00 0.00 0.00 77 1016.8
20260902013010 81 215 0.0 2.0 0.00 0.00 0.00 76 1016.8
20260902012509 81 219 0.0 2.0 0.00 0.00 0.00 76 1016.7
20260902012006 82 232 0.0 2.0 0.00 0.00 0.00 76 1016.6
20260902011515 82 215 1.0 2.0 0.00 0.00 0.00 76 1016.6
20260902011012 82 205 1.0 2.0 0.00 0.00 0.00 75 1016.5
20260902010511 82 225 1.0 2.0 0.00 0.00 0.00 75 1016.5
20260902010024 82 205 1.0 2.0 0.00 0.00 0.00 75 1016.4
20260902005513 82 211 0.0 2.0 0.00 0.00 0.00 75 1016.4
20260902005013 83 209 1.0 2.0 0.00 0.00 0.00 75 1016.3
20260902004530 83 207 1.0 2.0 0.00 0.00 0.00 74 1016.3
20260902004015 83 207 1.0 2.0 0.00 0.00 0.00 74 1016.3
20260902003503 83 198 1.0 2.0 0.00 0.00 0.00 73 1016.3
20260902003007 84 209 0.0 2.0 0.00 0.00 0.00 73 1016.3
20260902002504 84 214 1.0 1.0 0.00 0.00 0.00 72 1016.2
20260902002002 84 214 1.0 2.0 0.00 0.00 0.00 72 1016.3
20260902001515 85 214 0.0 2.0 0.00 0.00 0.00 72 1016.3
20260902001009 85 214 0.0 3.0 0.00 0.00 0.00 71 1016.4
20260902000507 85 223 1.0 3.0 0.00 0.00 0.00 71 1016.4
20260902000020 85 221 1.0 3.0 0.00 0.00 0.00 70 1016.4
20260901235511 86 206 1.0 2.0 0.00 0.00 0.00 70 1016.5
20260901235011 86 209 1.0 3.0 0.00 0.00 0.00 69 1016.4
20260901234527 87 222 1.0 3.0 0.00 0.00 0.00 69 1016.4
20260901234012 87 215 1.0 2.0 0.00 0.00 0.00 68 1016.5
20260901233513 87 208 1.0 3.0 0.00 0.00 0.00 68 1016.4
20260901233032 88 207 1.0 3.0 0.00 0.00 0.00 67 1016.5
20260901232503 88 183 1.0 5.0 0.00 0.00 0.00 67 1016.5
20260901232003 88 205 2.0 5.0 0.00 0.00 0.00 66 1016.5
20260901231511 89 232 2.0 5.0 0.00 0.00 0.00 64 1016.5
20260901231009 89 200 2.0 4.0 0.00 0.00 0.00 64 1016.5
20260901230507 90 190 2.0 4.0 0.00 0.00 0.00 64 1016.6
20260901230020 90 194 2.0 5.0 0.00 0.00 0.00 63 1016.6
20260901225508 90 196 2.0 5.0 0.00 0.00 0.00 63 1016.6
20260901225010 91 187 2.0 4.0 0.00 0.00 0.00 63 1016.5
20260901224525 91 202 2.0 4.0 0.00 0.00 0.00 62 1016.5
20260901224012 91 207 2.0 4.0 0.00 0.00 0.00 61 1016.5
20260901223514 91 194 2.0 4.0 0.00 0.00 0.00 61 1016.4
20260901223040 91 163 2.0 4.0 0.00 0.00 0.00 61 1016.4
20260901222515 92 213 2.0 6.0 0.00 0.00 0.00 61 1016.3
20260901222019 92 217 2.0 6.0 0.00 0.00 0.00 62 1016.4
20260901221508 92 203 1.0 5.0 0.00 0.00 0.00 59 1016.3
20260901221004 92 196 2.0 4.0 0.00 0.00 0.00 61 1016.3
20260901220507 92 214 2.0 5.0 0.00 0.00 0.00 59 1016.3
20260901220024 92 173 2.0 6.0 0.00 0.00 0.00 59 1016.3
20260901215507 92 194 2.0 6.0 0.00 0.00 0.00 58 1016.3
20260901215010 92 191 3.0 5.0 0.00 0.00 0.00 60 1016.3
20260901214522 93 182 2.0 5.0 0.00 0.00 0.00 59 1016.4
20260901214010 93 205 2.0 5.0 0.00 0.00 0.00 60 1016.4
20260901213512 93 194 2.0 8.0 0.00 0.00 0.00 60 1016.4
20260901213035 93 206 3.0 8.0 0.00 0.00 0.00 56 1016.4
20260901212512 93 226 2.0 6.0 0.00 0.00 0.00 57 1016.4
20260901212015 93 213 2.0 5.0 0.00 0.00 0.00 58 1016.4
20260901211531 93 191 2.0 6.0 0.00 0.00 0.00 58 1016.4
20260901211016 93 199 2.0 7.0 0.00 0.00 0.00 58 1016.4
20260901210504 93 202 4.0 7.0 0.00 0.00 0.00 57 1016.4
20260901210013 93 178 3.0 7.0 0.00 0.00 0.00 55 1016.4
20260901205508 93 205 1.0 8.0 0.00 0.00 0.00 57 1016.5
20260901205010 93 231 2.0 8.0 0.00 0.00 0.00 58 1016.5
20260901204518 93 166 1.0 8.0 0.00 0.00 0.00 56 1016.5
20260901204009 93 219 3.0 8.0 0.00 0.00 0.00 57 1016.6
20260901203514 93 244 4.0 8.0 0.00 0.00 0.00 56 1016.6